Location: Burbank
(38.7788°N, 114.0429°W)
Time: 21:37:52
(UTC+00:00)

S-56A Canister/Altair - Pass Details

Date: 14 May 2026
Orbit: 632 x 2484 km, 38.9° (Epoch: 8 June)

Event Time Altitude Azimuth Distance (km) Brightness Sun altitude
Rises 04:53:20 0° 250° (WSW) 2,973 10.8 -21.6°
Reaches altitude 10° 04:55:40 10° 248° (WSW) 2,014 9.9 -21.8°
Maximum altitude 05:00:03 69° 165° (SSE) 688 7.0 -22.4°
Enters shadow 05:00:14 68° 146° (SE) 694 7.0 -22.4°
Drops below altitude 10° 05:04:54 10° 82° (E) 2,216 - -23.0°
Sets 05:07:34 0° 80° (E) 3,305 - -23.3°
